Regional Weather Roundup
Issued by NWS

Home | Current Version | Previous Version | Graphics & Text | Print | Product List | Glossary Off
Versions: 1 2 3 4 5 6 7 8 9 10 11 12 13 14 15 16 17 18 19 20 21 22 23 24 25 26 27 28 29 30 31 32 33 34 35 36 37 38 39 40 41 42 43 44 45 46 47 48 49 50

000
ASUS43 KDMX 302308
RWRIA

WEATHER ROUNDUP FOR IOWA
NATIONAL WEATHER SERVICE DES MOINES IA
600 PM CDT SAT JUL 30 2016

NOTE: "FAIR" INDICATES FEW OR NO CLOUDS BELOW 12,000 FEET WITH NO
SIGNIFICANT WEATHER AND/OR OBSTRUCTIONS TO VISIBILITY.

* - THESE STATIONS ARE NOT NWS STATIONS...THUS NOT UNDER NWS
QUALITY CONTROL.  THEY ALSO DO NOT REPORT WEATHER SUCH
AS PRECIPITATION OR FOG.

IAZ001>003-012>014-020>022-031>034-043>046-310000-
   NORTHWEST IOWA

CITY           SKY/WX    TMP DP  RH WIND       PRES   REMARKS
CARROLL *      SUNNY     81  63  54 SE5       29.97S HX  82
CHEROKEE *     MOSUNNY   80  61  51 SE7       29.97S HX  81
DENISON *      MOSUNNY   79  64  61 CALM      29.95S HX  81
LE MARS *      SUNNY     81  61  50 SE9       29.96F HX  81
SHELDON *      MOSUNNY   79  59  50 S10       29.96F HX  80
SIOUX CITY     SUNNY     79  62  56 S7        29.95F HX  80
SPENCER        MOSUNNY   80  59  48 S7        29.98F HX  81
STORM LAKE *   SUNNY     79  64  61 S7        29.99S HX  81
$$

IAZ055>058-069>071-079>083-090>094-310000-
   SOUTHWEST IOWA

CITY           SKY/WX    TMP DP  RH WIND       PRES   REMARKS
ATLANTIC *     SUNNY     81  64  57 S7        29.97S HX  82
CLARINDA *       N/A     81  66  61 MISG      29.99S HX  83
COUNCIL BLFS * MOSUNNY   79  64  61 S7        29.97F HX  81
CRESTON *      PTSUNNY   79  64  61 VRB5      30.00S HX  81
HARLAN  *      MOSUNNY   79  64  61 S7        30.00S HX  81
LAMONI         SUNNY     79  65  62 CALM      29.97F HX  81
RED OAK *      MOSUNNY   81  64  57 S7        29.97S HX  82
SHENANDOAH *   CLOUDY    79  68  69 S5        29.97F HX  81
$$

IAZ047>049-059>061-072>074-084-310000-
   CENTRAL IOWA

CITY           SKY/WX    TMP DP  RH WIND       PRES   REMARKS
AMES           SUNNY     80  68  66 SE3       29.96F HX  83
ANKENY *         N/A    N/A N/A N/A MISG        N/A
BOONE *        SUNNY     79  64  61 CALM      29.96F HX  81
CHARITON *       N/A    N/A N/A N/A MISG        N/A
DES MOINES     MOSUNNY   82  65  56 S7        29.96S HX  84
GRINNELL*      SUNNY     79  65  62 CALM      29.98S HX  81
KNOXVILLE *    SUNNY     79  66  65 SE5       29.96F HX  81
MARSHALLTOWN   PTSUNNY   78  67  68 SE3       29.97F HX  80
NEWTON *       SUNNY     79  66  65 SE5       29.96F HX  81
PELLA *        SUNNY     81  64  57 CALM      29.98S HX  83
PERRY *          N/A     81  67  63 S5        29.97S HX  83
$$

IAZ004>006-015-016-023>025-035-036-310000-
   NORTH CENTRAL IOWA

CITY           SKY/WX    TMP DP  RH WIND       PRES   REMARKS
ALGONA *       MOSUNNY   77  66  69 VRB3      29.99S
ESTHERVILLE    SUNNY     75  64  68 S5        29.98F
FORT DODGE *   CLOUDY    79  66  65 CALM      29.98F HX  81
MASON CITY     CLOUDY    75  66  73 CALM      30.00F
FOREST CITY *    N/A     75  64  69 CALM      29.99S
IOWA FALLS *   PTSUNNY   81  65  56 S3        29.99S HX  83
$$

IAZ007>011-017>019-026>030-037>042-050>054-066-310000-
   NORTHEAST IOWA

CITY           SKY/WX    TMP DP  RH WIND       PRES   REMARKS
CEDAR RAPIDS   PTSUNNY   81  69  67 NE5       29.96F HX  84
CHARLES CITY * MOSUNNY   75  68  78 SE6       29.99F
CLINTON *      MOSUNNY   79  68  69 NE3       29.98S HX  81
DECORAH *      MOSUNNY   77  66  69 VRB6      29.99S
DUBUQUE          N/A    N/A N/A N/A MISG      30.00S
MONTICELLO *   MOSUNNY   79  68  69 NE8       29.98S HX  81
OELWEIN *      MOSUNNY   77  68  73 SE8       29.99F
WATERLOO       MOSUNNY   78  66  66 NE5       29.96F HX  80
$$

IAZ064-065-067-068-078-310000-
   EAST CENTRAL IOWA

CITY           SKY/WX    TMP DP  RH WIND       PRES   REMARKS
DAVENPORT      PTSUNNY   79  66  64 E5        29.97F HX  81
IOWA CITY      PTSUNNY   80  66  62 N3        29.97S HX  82
MT. PLEASANT * CLOUDY    82  70  67 CALM      29.96F HX  85
MUSCATINE *    PTSUNNY   81  68  65 S6        29.96S HX  83
QUAD CITIES    PTSUNNY   81  66  60 NE7       29.96S HX  83
$$

IAZ062-063-075>077-085>089-095>099-310000-
   SOUTHEAST IOWA

CITY           SKY/WX    TMP DP  RH WIND       PRES   REMARKS
BURLINGTON     PTSUNNY   79  68  69 W6        29.96F HX  81
FAIRFIELD *    CLOUDY    81  66  61 N6        29.96F HX  83
KEOKUK *       MOSUNNY   81  66  61 W5        29.95F HX  83
OSKALOOSA *      N/A     79  66  63 CALM      29.97F HX  81
CENTERVILLE *    N/A     79  66  65 CALM      29.98F HX  81
OTTUMWA        CLOUDY    81  64  56 N3        29.96F HX  82
WASHINGTON *   MOSUNNY   81  66  61 CALM      29.97F HX  83
$$

ABBREVIATIONS USED IN REMARKS
   TC - TEMPERATURES IN CELSIUS
  WCI - WIND CHILL INDEX
   HX - HEAT INDEX
  VSB - VISIBILITY
$$




USA.gov is the U.S. government's official web portal to all federal, state and local government web resources and services.